This demonstration page uses our WeatherBlox Daily Observations layout. Learn more.

Left ArrowRight Arrow

34.16533, -84.80231

Hourly Observations for August 13, 2017

Temp ( °F °C ) Dew Point ( °F °C ) Humidity (%) Winds ( mph kmh ) Pressure ( in mb ) Visibility ( mi km ) Precip ( " mm )
12:53 am 00:53 Cloudy 76 24.4 75 23.9 97 97 Calm 29.93 1014 10 16 0.00 0.00
1:53 am 01:53 Cloudy 74 23.3 74 23.3 100 100 Calm 29.92 1013 10 16 0.00 0.00
2:53 am 02:53 Mostly Cloudy 73 22.8 73 22.8 100 100 Calm 29.91 1013 10 16 0.00 0.00
3:53 am 03:53 Partly Cloudy 73 22.8 73 22.8 100 100 Calm 29.91 1013 10 16 0.00 0.00
4:53 am 04:53 Clear 72 22.2 72 22.2 100 100 Calm 29.91 1013 9 14 0.00 0.00
5:53 am 05:53 Clear 72 22.2 72 22.2 100 100 Calm 29.91 1013 8 13 0.00 0.00
6:25 am 06:25 Partly Cloudy 71 21.7 71 21.7 100 100 Calm 29.97 1015 7 11 0.00 0.00
6:34 am 06:34 Mostly Cloudy with Mist and Fog 71 21.7 71 21.7 100 100 Calm 29.97 1015 6 10 0.00 0.00
6:53 am 06:53 Cloudy with Mist and Fog 71 21.7 71 21.7 100 100 Calm 29.93 1014 6 10 0.00 0.00
7:12 am 07:12 Partly Cloudy with Mist and Fog 71 21.7 71 21.7 100 100 Calm 29.97 1015 5 8 0.00 0.00
7:46 am 07:46 Mostly Cloudy with Mist and Fog 72 22.2 72 22.2 100 100 Calm 30.00 1016 5 8 0.00 0.00
7:53 am 07:53 Mostly Cloudy with Mist and Fog 72 22.2 72 22.2 100 100 Calm 29.95 1014 4 6 0.00 0.00
7:58 am 07:58 Cloudy with Mist and Fog 72 22.2 72 22.2 100 100 Calm 30.00 1016 2 2 0.00 0.00
8:07 am 08:07 Cloudy with Fog 72 22.2 72 22.2 100 100 Calm 29.97 1015 1 1 0.00 0.00
8:17 am 08:17 Cloudy with Mist and Fog 72 22.2 72 22.2 100 100 Calm 30.00 1016 2 3 0.00 0.00
8:25 am 08:25 Mostly Cloudy with Mist and Fog 72 22.2 72 22.2 100 100 Calm 30.00 1016 5 8 0.00 0.00
8:53 am 08:53 Cloudy with Mist and Fog 72 22.2 72 22.2 100 100 Calm 29.96 1015 6 10 0.00 0.00
9:53 am 09:53 Cloudy 75 23.9 74 23.3 96 96 Calm 29.97 1015 9 14 0.00 0.00
10:13 am 10:13 Cloudy 76 24.4 74 23.3 94 94 Calm 30.00 1016 10 16 0.00 0.00
10:49 am 10:49 Partly Cloudy 79 26 73 23 84 84 Calm 29.97 1015 10 16 0.00 0.00
10:53 am 10:53 Mostly Cloudy 78 25.6 74 23.3 87 87 Calm 29.97 1015 10 16 0.00 0.00
11:00 am 11:00 Partly Cloudy 79 26.1 74 23.3 85 85 NNE 3 6 29.97 1015 10 16 0.00 0.00
11:53 am 11:53 Sunny 82 27.8 74 23.3 77 77 VRB 3 6 29.98 1015 10 16 0.00 0.00
12:53 pm 12:53 Sunny 85 29.4 73 22.8 68 68 Calm 29.96 1015 10 16 0.00 0.00
1:53 pm 13:53 Sunny 87 30.6 73 22.8 63 63 Calm 29.94 1014 10 16 0.00 0.00
2:53 pm 14:53 Mostly Sunny 88 31.1 73 22.8 61 61 VRB 3 6 29.93 1013 10 16 0.00 0.00
3:53 pm 15:53 Sunny 86 30 73 22.8 65 65 Calm 29.91 1013 10 16 0.00 0.00
4:53 pm 16:53 Partly Cloudy 86 30 72 22.2 63 63 Calm 29.91 1013 10 16 0.00 0.00
5:53 pm 17:53 Sunny 86 30 75 23.9 70 70 Calm 29.90 1012 10 16 0.00 0.00
6:53 pm 18:53 Sunny 85 29.4 75 23.9 72 72 N 5 7 29.90 1012 10 16 0.00 0.00
7:53 pm 19:53 Sunny 80 26.7 77 25 90 90 Calm 29.91 1013 10 16 0.00 0.00
8:53 pm 20:53 Clear 76 24.4 76 24.4 100 100 Calm 29.91 1013 10 16 0.00 0.00
9:53 pm 21:53 Clear 74 23.3 74 23.3 100 100 Calm 29.94 1014 10 16 0.00 0.00
10:53 pm 22:53 Clear 74 23.3 74 23.3 100 100 Calm 29.95 1014 10 16 0.00 0.00
11:53 pm 23:53 Clear 73 22.8 73 22.8 100 100 Calm 29.94 1014 10 16 0.00 0.00

Powered by AerisWeather